Regional Weather Roundup
Issued by NWS Columbia, SC

Home | Current Version | Previous Version | Text Only | Print | Product List | Glossary On
Versions: 1 2 3 4 5 6 7 8 9 10 11 12 13 14 15 16 17 18 19 20 21 22 23 24 25 26 27 28 29 30 31 32 33 34 35 36 37 38 39 40 41 42 43 44 45 46 47 48 49 50
000
ASUS42 KCAE 231610
RWRCAE
REGIONAL WEATHER ROUNDUP
NATIONAL WEATHER SERVICE COLUMBIA SC
1200 PM EDT WED AUG 23 2017

NOTE: "FAIR" INDICATES FEW OR NO CLOUDS BELOW 12,000 FEET WITH NO
SIGNIFICANT WEATHER AND/OR OBSTRUCTIONS TO VISIBILITY.

NOT ALL STATIONS ARE QUALITY CONTROLLED BY THE NATIONAL
WEATHER SERVICE. USE DATA WITH CAUTION...ESPECIALLY
DEWPOINT OBSERVATIONS.

SCZ001>056-GAZ040-063>065-077-231700-
...UPSTATE SOUTH CAROLINA...

CITY           SKY/WX    TMP DP  RH WIND       PRES   REMARKS
ANDERSON       SUNNY     89  70  53 W10       29.94S
LIBERTY        SUNNY     89  71  55 W6        29.94S
SPARTANBURG    SUNNY     86  64  48 SW5       29.93F
CLEMSON        SUNNY     88  70  55 VRB7      29.95S
GREENVILLE     SUNNY     87  69  54 SW5       29.95S
GREENWOOD      SUNNY     88  73  61 SW9       29.95S HX  95
GREER          SUNNY     88  69  53 SW6       29.93S
ROCK HILL      SUNNY     87  74  64 W6        29.93S HX  95
CHESTER        SUNNY     88  66  48 W7        29.92F
LAURENS        MOSUNNY   90  70  51 W7        29.93S HX  95


...CENTRAL SOUTH CAROLINA...

CITY           SKY/WX    TMP DP  RH WIND       PRES   REMARKS
COLUMBIA APT   MOSUNNY   94  72  48 VRB6      29.90F HX 102
COLUMBIA OWENS SUNNY     93  68  43 NW6       29.91F HX  97
MCENTIRE ANGB  MOSUNNY   92  72  53 SW13      29.91F HX  99
ORANGEBURG     SUNNY     91  74  57 SW7       29.92F HX 100
SUMTER SHAW    MOSUNNY   91  73  54 SW12      29.89S HX  99
NEWBERRY       SUNNY     90  72  55 SW10G16   29.95S HX  96
AIKEN          FAIR      88  73  62 SW8       29.97S HX  96
BARNWELL       FAIR      93  75  55 W8        29.93F HX 104
MANNING        FAIR      88  72  58 CALM      29.92F
CAMDEN         FAIR      91  72  52 W9        29.92S HX  98
LANCASTER      SUNNY     90  70  51 W6        29.91F HX  95
WINNSBORO      SUNNY     88  70  55 SW8       29.92F


...EASTERN AND COASTAL SOUTH CAROLINA...

CITY           SKY/WX    TMP DP  RH WIND       PRES   REMARKS
MYRTLE BEACH   MOSUNNY   88  75  66 SW12      29.93F HX  97
N MYRTLE BCH   SUNNY     88  75  65 SW10      29.92F HX  97
CONWAY         FAIR      86  77  74 S9        29.92F HX  97
MARION         FAIR      88  73  62 SW7       29.91F HX  96
HARTSVILLE     FAIR      90  72  55 W7        29.91S HX  96
FLORENCE       SUNNY     89  75  63 MISG      29.91F HX  99
DARLINGTON     SUNNY     90  76  63 VRB6      29.91S HX 101
CHARLESTON APT MOSUNNY   89  77  67 SW7       29.93F HX 101
MOUNT PLEASANT FAIR      90  75  62 SW5       29.94F HX 100
WALTERBORO     SUNNY     88  73  62 SW3       29.95F HX  96
BEAUFORT       SUNNY     90  77  65 W7        29.94F HX 103


...EASTERN GEORGIA...

CITY           SKY/WX    TMP DP  RH WIND       PRES   REMARKS
AUGUSTA BUSH F MOSUNNY   92  76  59 W9        29.92F HX 104
AUGUSTA DANIEL SUNNY     91  70  49 W7        29.95S HX  96
THOMSON        MOSUNNY   89  72  58 NW9       29.99S HX  95
WASHINGTON     FAIR     N/A N/A N/A W9        29.95S
CLAXTON        FAIR      91  76  59 W5        29.95F HX 103
SYLVANIA       SUNNY     91  78  65 NW6       29.95F HX 104
STATESBORO     MOSUNNY   91  72  53 W8        29.95F HX  97
SAVANNAH       MOSUNNY   91  75  59 W7        29.95F HX 101


...SOUTHERN NORTH CAROLINA...

CITY           SKY/WX    TMP DP  RH WIND       PRES   REMARKS
CHARLOTTE      MOSUNNY   89  74  60 W6        29.93S HX  98
MONROE         SUNNY     86  71  60 W7        29.91F
WADESBORO      SUNNY     90  72  56 W7        29.90F HX  97
ROCKINGHAM     SUNNY     89  74  61 SW10      29.91S HX  98
RUTHERFORDTON  MOSUNNY   87  71  59 CALM      29.95S
ASHEVILLE      CLOUDY    77  67  71 N14       30.03R

$$



USA.gov is the U.S. government's official web portal to all federal, state and local government web resources and services.